Year,Month,Day,Hour,Minute,Value (Times are PST for temperature in C)
2009,09,23,00,00,13.90
2009,09,23,00,01,13.90
2009,09,23,00,02,13.90
2009,09,23,00,03,13.90
2009,09,23,00,04,13.90
2009,09,23,00,05,13.90
2009,09,23,00,06,13.90
2009,09,23,00,07,13.90
2009,09,23,00,08,13.90
2009,09,23,00,09,13.90
2009,09,23,00,10,13.90
2009,09,23,00,11,13.90
2009,09,23,00,12,13.80
2009,09,23,00,13,13.80
2009,09,23,00,14,13.80
2009,09,23,00,15,13.80
2009,09,23,00,16,13.80
2009,09,23,00,17,13.80
2009,09,23,00,18,13.70
2009,09,23,00,19,13.70
2009,09,23,00,20,13.70
2009,09,23,00,21,13.70
2009,09,23,00,22,13.70
2009,09,23,00,23,13.70
2009,09,23,00,24,13.70
2009,09,23,00,25,13.70
2009,09,23,00,26,13.80
2009,09,23,00,27,13.80
2009,09,23,00,28,13.90
2009,09,23,00,29,13.90
2009,09,23,00,30,14.00
2009,09,23,00,31,14.00
2009,09,23,00,32,14.00
2009,09,23,00,33,14.10
2009,09,23,00,34,14.10
2009,09,23,00,35,14.20
2009,09,23,00,36,14.20
2009,09,23,00,37,14.20
2009,09,23,00,38,14.30
2009,09,23,00,39,14.30
2009,09,23,00,40,14.30
2009,09,23,00,41,14.40
2009,09,23,00,42,14.40
2009,09,23,00,43,14.50
2009,09,23,00,44,14.60
2009,09,23,00,45,14.70
2009,09,23,00,46,14.80
2009,09,23,00,47,14.90
2009,09,23,00,48,15.00
2009,09,23,00,49,15.20
2009,09,23,00,50,15.30
2009,09,23,00,51,15.30
2009,09,23,00,52,15.30
2009,09,23,00,53,15.40
2009,09,23,00,54,15.40
2009,09,23,00,55,15.40
2009,09,23,00,56,15.40
2009,09,23,00,57,15.40
2009,09,23,00,58,15.40
2009,09,23,00,59,15.40
2009,09,23,01,00,15.40
2009,09,23,01,01,15.40
2009,09,23,01,02,15.40
2009,09,23,01,03,15.30
2009,09,23,01,04,15.30
2009,09,23,01,05,15.30
2009,09,23,01,06,15.30
2009,09,23,01,07,15.20
2009,09,23,01,08,15.10
2009,09,23,01,09,15.00
2009,09,23,01,10,14.90
2009,09,23,01,11,14.80
2009,09,23,01,12,14.60
2009,09,23,01,13,14.50
2009,09,23,01,14,14.50
2009,09,23,01,15,14.40
2009,09,23,01,16,14.30
2009,09,23,01,17,14.20
2009,09,23,01,18,14.10
2009,09,23,01,19,14.10
2009,09,23,01,20,14.00
2009,09,23,01,21,14.00
2009,09,23,01,22,14.00
2009,09,23,01,23,13.90
2009,09,23,01,24,13.90
2009,09,23,01,25,13.90
2009,09,23,01,26,13.90
2009,09,23,01,27,13.80
2009,09,23,01,28,13.80
2009,09,23,01,29,13.80
2009,09,23,01,30,13.80
2009,09,23,01,31,13.70
2009,09,23,01,32,13.70
2009,09,23,01,33,13.70
2009,09,23,01,34,13.70
2009,09,23,01,35,13.70
2009,09,23,01,36,13.70
2009,09,23,01,37,13.60
2009,09,23,01,38,13.60
2009,09,23,01,39,13.70
2009,09,23,01,40,13.70
2009,09,23,01,41,13.80
2009,09,23,01,42,13.90
2009,09,23,01,43,14.00
2009,09,23,01,44,14.10
2009,09,23,01,45,14.10
2009,09,23,01,46,14.20
2009,09,23,01,47,14.20
2009,09,23,01,48,14.20
2009,09,23,01,49,14.30
2009,09,23,01,50,14.30
2009,09,23,01,51,14.40
2009,09,23,01,52,14.40
2009,09,23,01,53,14.40
2009,09,23,01,54,14.50
2009,09,23,01,55,14.50
2009,09,23,01,56,14.50
2009,09,23,01,57,14.50
2009,09,23,01,58,14.50
2009,09,23,01,59,14.50
2009,09,23,02,00,14.50
2009,09,23,02,01,14.50
2009,09,23,02,02,14.50
2009,09,23,02,03,14.50
2009,09,23,02,04,14.40
2009,09,23,02,05,14.40
2009,09,23,02,06,14.40
2009,09,23,02,07,14.40
2009,09,23,02,08,14.40
2009,09,23,02,09,14.40
2009,09,23,02,10,14.40
2009,09,23,02,11,14.40
2009,09,23,02,12,14.40
2009,09,23,02,13,14.40
2009,09,23,02,14,14.40
2009,09,23,02,15,14.30
2009,09,23,02,16,14.20
2009,09,23,02,17,14.20
2009,09,23,02,18,14.10
2009,09,23,02,19,14.00
2009,09,23,02,20,13.90
2009,09,23,02,21,13.90
2009,09,23,02,22,13.80
2009,09,23,02,23,13.70
2009,09,23,02,24,13.70
2009,09,23,02,25,13.70
2009,09,23,02,26,13.60
2009,09,23,02,27,13.60
2009,09,23,02,28,13.50
2009,09,23,02,29,13.40
2009,09,23,02,30,13.40
2009,09,23,02,31,13.30
2009,09,23,02,32,13.30
2009,09,23,02,33,13.30
2009,09,23,02,34,13.30
2009,09,23,02,35,13.30
2009,09,23,02,36,13.30
2009,09,23,02,37,13.30
2009,09,23,02,38,13.30
2009,09,23,02,39,13.30
2009,09,23,02,40,13.30
2009,09,23,02,41,13.30
2009,09,23,02,42,13.30
2009,09,23,02,43,13.30
2009,09,23,02,44,13.30
2009,09,23,02,45,13.20
2009,09,23,02,46,13.20
2009,09,23,02,47,13.10
2009,09,23,02,48,13.10
2009,09,23,02,49,13.10
2009,09,23,02,50,13.00
2009,09,23,02,51,13.00
2009,09,23,02,52,13.00
2009,09,23,02,53,13.00
2009,09,23,02,54,13.00
2009,09,23,02,55,12.90
2009,09,23,02,56,12.90
2009,09,23,02,57,12.90
2009,09,23,02,58,12.80
2009,09,23,02,59,12.80
2009,09,23,03,00,12.80
2009,09,23,03,01,12.80
2009,09,23,03,02,12.80
2009,09,23,03,03,12.80
2009,09,23,03,04,12.80
2009,09,23,03,05,12.80
2009,09,23,03,06,12.70
2009,09,23,03,07,12.70
2009,09,23,03,08,12.60
2009,09,23,03,09,12.50
2009,09,23,03,10,12.40
2009,09,23,03,11,12.40
2009,09,23,03,12,12.30
2009,09,23,03,13,12.30
2009,09,23,03,14,12.30
2009,09,23,03,15,12.30
2009,09,23,03,16,12.30
2009,09,23,03,17,12.20
2009,09,23,03,18,12.20
2009,09,23,03,19,12.20
2009,09,23,03,20,12.20
2009,09,23,03,21,12.20
2009,09,23,03,22,12.20
2009,09,23,03,23,12.20
2009,09,23,03,24,12.30
2009,09,23,03,25,12.30
2009,09,23,03,26,12.30
2009,09,23,03,27,12.30
2009,09,23,03,28,12.40
2009,09,23,03,29,12.40
2009,09,23,03,30,12.50
2009,09,23,03,31,12.50
2009,09,23,03,32,12.50
2009,09,23,03,33,12.60
2009,09,23,03,34,12.60
2009,09,23,03,35,12.80
2009,09,23,03,36,12.80
2009,09,23,03,37,13.00
2009,09,23,03,38,13.10
2009,09,23,03,39,13.20
2009,09,23,03,40,13.30
2009,09,23,03,41,13.30
2009,09,23,03,42,13.40
2009,09,23,03,43,13.40
2009,09,23,03,44,13.40
2009,09,23,03,45,13.40
2009,09,23,03,46,13.40
2009,09,23,03,47,13.30
2009,09,23,03,48,13.30
2009,09,23,03,49,13.30
2009,09,23,03,50,13.30
2009,09,23,03,51,13.20
2009,09,23,03,52,13.10
2009,09,23,03,53,13.10
2009,09,23,03,54,13.00
2009,09,23,03,55,13.00
2009,09,23,03,56,12.90
2009,09,23,03,57,12.90
2009,09,23,03,58,12.90
2009,09,23,03,59,12.80
2009,09,23,04,00,12.80
2009,09,23,04,01,12.80
2009,09,23,04,02,12.80
2009,09,23,04,03,12.80
2009,09,23,04,04,12.80
2009,09,23,04,05,12.70
2009,09,23,04,06,12.70
2009,09,23,04,07,12.60
2009,09,23,04,08,12.60
2009,09,23,04,09,12.60
2009,09,23,04,10,12.60
2009,09,23,04,11,12.50
2009,09,23,04,12,12.50
2009,09,23,04,13,12.50
2009,09,23,04,14,12.50
2009,09,23,04,15,12.50
2009,09,23,04,16,12.40
2009,09,23,04,17,12.40
2009,09,23,04,18,12.40
2009,09,23,04,19,12.40
2009,09,23,04,20,12.40
2009,09,23,04,21,12.40
2009,09,23,04,22,12.40
2009,09,23,04,23,12.40
2009,09,23,04,24,12.50
2009,09,23,04,25,12.50
2009,09,23,04,26,12.50
2009,09,23,04,27,12.50
2009,09,23,04,28,12.60
2009,09,23,04,29,12.50
2009,09,23,04,30,12.50
2009,09,23,04,31,12.50
2009,09,23,04,32,12.40
2009,09,23,04,33,12.40
2009,09,23,04,34,12.40
2009,09,23,04,35,12.40
2009,09,23,04,36,12.30
2009,09,23,04,37,12.30
2009,09,23,04,38,12.30
2009,09,23,04,39,12.30
2009,09,23,04,40,12.30
2009,09,23,04,41,12.30
2009,09,23,04,42,12.30
2009,09,23,04,43,12.30
2009,09,23,04,44,12.30
2009,09,23,04,45,12.20
2009,09,23,04,46,12.20
2009,09,23,04,47,12.30
2009,09,23,04,48,12.30
2009,09,23,04,49,12.30
2009,09,23,04,50,12.20
2009,09,23,04,51,12.20
2009,09,23,04,52,12.20
2009,09,23,04,53,12.10
2009,09,23,04,54,12.00
2009,09,23,04,55,12.00
2009,09,23,04,56,11.90
2009,09,23,04,57,11.90
2009,09,23,04,58,11.80
2009,09,23,04,59,11.80
2009,09,23,05,00,11.70
2009,09,23,05,01,11.70
2009,09,23,05,02,11.60
2009,09,23,05,03,11.60
2009,09,23,05,04,11.50
2009,09,23,05,05,11.40
2009,09,23,05,06,11.40
2009,09,23,05,07,11.40
2009,09,23,05,08,11.40
2009,09,23,05,09,11.40
2009,09,23,05,10,11.40
2009,09,23,05,11,11.40
2009,09,23,05,12,11.40
2009,09,23,05,13,11.40
2009,09,23,05,14,11.40
2009,09,23,05,15,11.30
2009,09,23,05,16,11.30
2009,09,23,05,17,11.20
2009,09,23,05,18,11.20
2009,09,23,05,19,11.10
2009,09,23,05,20,11.10
2009,09,23,05,21,11.10
2009,09,23,05,22,11.10
2009,09,23,05,23,11.10
2009,09,23,05,24,11.00
2009,09,23,05,25,10.90
2009,09,23,05,26,10.90
2009,09,23,05,27,10.90
2009,09,23,05,28,10.90
2009,09,23,05,29,10.90
2009,09,23,05,30,10.90
2009,09,23,05,31,10.90
2009,09,23,05,32,10.90
2009,09,23,05,33,10.90
2009,09,23,05,34,11.00
2009,09,23,05,35,11.10
2009,09,23,05,36,11.10
2009,09,23,05,37,11.10
2009,09,23,05,38,11.10
2009,09,23,05,39,11.20
2009,09,23,05,40,11.30
2009,09,23,05,41,11.30
2009,09,23,05,42,11.40
2009,09,23,05,43,11.40
2009,09,23,05,44,11.40
2009,09,23,05,45,11.40
2009,09,23,05,46,11.40
2009,09,23,05,47,11.40
2009,09,23,05,48,11.40
2009,09,23,05,49,11.40
2009,09,23,05,50,11.40
2009,09,23,05,51,11.40
2009,09,23,05,52,11.40
2009,09,23,05,53,11.40
2009,09,23,05,54,11.40
2009,09,23,05,55,11.40
2009,09,23,05,56,11.40
2009,09,23,05,57,11.40
2009,09,23,05,58,11.40
2009,09,23,05,59,11.40
2009,09,23,06,00,11.40
2009,09,23,06,01,11.30
2009,09,23,06,02,11.30
2009,09,23,06,03,11.30
2009,09,23,06,04,11.20
2009,09,23,06,05,11.20
2009,09,23,06,06,11.20
2009,09,23,06,07,11.20
2009,09,23,06,08,11.10
2009,09,23,06,09,11.10
2009,09,23,06,10,11.10
2009,09,23,06,11,11.10
2009,09,23,06,12,11.10
2009,09,23,06,13,11.10
2009,09,23,06,14,11.10
2009,09,23,06,15,11.10
2009,09,23,06,16,11.10
2009,09,23,06,17,11.10
2009,09,23,06,18,11.10
2009,09,23,06,19,11.10
2009,09,23,06,20,11.10
2009,09,23,06,21,11.10
2009,09,23,06,22,11.10
2009,09,23,06,23,11.10
2009,09,23,06,24,11.10
2009,09,23,06,25,11.10
2009,09,23,06,26,11.10
2009,09,23,06,27,11.00
2009,09,23,06,28,10.90
2009,09,23,06,29,10.90
2009,09,23,06,30,11.00
2009,09,23,06,31,11.10
2009,09,23,06,32,11.10
2009,09,23,06,33,11.10
2009,09,23,06,34,11.10
2009,09,23,06,35,11.10
2009,09,23,06,36,11.10
2009,09,23,06,37,11.10
2009,09,23,06,38,11.10
2009,09,23,06,39,11.10
2009,09,23,06,40,11.10
2009,09,23,06,41,11.10
2009,09,23,06,42,11.10
2009,09,23,06,43,11.10
2009,09,23,06,44,11.20
2009,09,23,06,45,11.20
2009,09,23,06,46,11.10
2009,09,23,06,47,11.10
2009,09,23,06,48,11.10
2009,09,23,06,49,11.10
2009,09,23,06,50,11.10
2009,09,23,06,51,11.10
2009,09,23,06,52,11.10
2009,09,23,06,53,11.10
2009,09,23,06,54,11.10
2009,09,23,06,55,11.10
2009,09,23,06,56,11.10
2009,09,23,06,57,11.10
2009,09,23,06,58,11.10
2009,09,23,06,59,11.20
2009,09,23,07,00,11.30
2009,09,23,07,01,11.40
2009,09,23,07,02,11.40
2009,09,23,07,03,11.60
2009,09,23,07,04,11.60
2009,09,23,07,05,11.60
2009,09,23,07,06,11.70
2009,09,23,07,07,11.70
2009,09,23,07,08,11.70
2009,09,23,07,09,11.70
2009,09,23,07,10,11.70
2009,09,23,07,11,11.70
2009,09,23,07,12,11.90
2009,09,23,07,13,12.10
2009,09,23,07,14,12.20
2009,09,23,07,15,12.30
2009,09,23,07,16,12.30
2009,09,23,07,17,12.30
2009,09,23,07,18,12.30
2009,09,23,07,19,12.30
2009,09,23,07,20,12.30
2009,09,23,07,21,12.30
2009,09,23,07,22,12.30
2009,09,23,07,23,12.40
2009,09,23,07,24,12.40
2009,09,23,07,25,12.40
2009,09,23,07,26,12.40
2009,09,23,07,27,12.40
2009,09,23,07,28,12.30
2009,09,23,07,29,12.30
2009,09,23,07,30,12.20
2009,09,23,07,31,12.20
2009,09,23,07,32,12.10
2009,09,23,07,33,12.00
2009,09,23,07,34,12.00
2009,09,23,07,35,11.90
2009,09,23,07,36,11.90
2009,09,23,07,37,11.80
2009,09,23,07,38,11.80
2009,09,23,07,39,11.80
2009,09,23,07,40,11.70
2009,09,23,07,41,11.70
2009,09,23,07,42,11.70
2009,09,23,07,43,11.70
2009,09,23,07,44,11.70
2009,09,23,07,45,11.70
2009,09,23,07,46,11.70
2009,09,23,07,47,11.70
2009,09,23,07,48,11.70
2009,09,23,07,49,11.70
2009,09,23,07,50,11.70
2009,09,23,07,51,11.70
2009,09,23,07,52,11.70
2009,09,23,07,53,11.70
2009,09,23,07,54,11.70
2009,09,23,07,55,11.80
2009,09,23,07,56,11.80
2009,09,23,07,57,11.80
2009,09,23,07,58,11.90
2009,09,23,07,59,12.00
2009,09,23,08,00,12.10
2009,09,23,08,01,12.10
2009,09,23,08,02,12.20
2009,09,23,08,03,12.30
2009,09,23,08,04,12.30
2009,09,23,08,05,12.40
2009,09,23,08,06,12.40
2009,09,23,08,07,12.50
2009,09,23,08,08,12.50
2009,09,23,08,09,12.60
2009,09,23,08,10,12.60
2009,09,23,08,11,12.70
2009,09,23,08,12,12.70
2009,09,23,08,13,12.80
2009,09,23,08,14,12.80
2009,09,23,08,15,12.80
2009,09,23,08,16,12.90
2009,09,23,08,17,13.00
2009,09,23,08,18,13.10
2009,09,23,08,19,13.20
2009,09,23,08,20,13.30
2009,09,23,08,21,13.30
2009,09,23,08,22,13.30
2009,09,23,08,23,13.30
2009,09,23,08,24,13.30
2009,09,23,08,25,13.30
2009,09,23,08,26,13.30
2009,09,23,08,27,13.30
2009,09,23,08,28,13.40
2009,09,23,08,29,13.40
2009,09,23,08,30,13.50
2009,09,23,08,31,13.50
2009,09,23,08,32,13.60
2009,09,23,08,33,13.70
2009,09,23,08,34,13.70
2009,09,23,08,35,13.70
2009,09,23,08,36,13.70
2009,09,23,08,37,13.70
2009,09,23,08,38,13.80
2009,09,23,08,39,13.90
2009,09,23,08,40,13.90
2009,09,23,08,41,14.00
2009,09,23,08,42,14.00
2009,09,23,08,43,14.10
2009,09,23,08,44,14.20
2009,09,23,08,45,14.20
2009,09,23,08,46,14.40
2009,09,23,08,47,14.50
2009,09,23,08,48,14.50
2009,09,23,08,49,14.60
2009,09,23,08,50,14.70
2009,09,23,08,51,14.80
2009,09,23,08,52,14.80
2009,09,23,08,53,14.80
2009,09,23,08,54,14.90
2009,09,23,08,55,14.90
2009,09,23,08,56,15.00
2009,09,23,08,57,15.00
2009,09,23,08,58,15.10
2009,09,23,08,59,15.20
2009,09,23,09,00,15.20
2009,09,23,09,01,15.30
2009,09,23,09,02,15.30
2009,09,23,09,03,15.30
2009,09,23,09,04,15.40
2009,09,23,09,05,15.50
2009,09,23,09,06,15.50
2009,09,23,09,07,15.60
2009,09,23,09,08,15.70
2009,09,23,09,09,15.80
2009,09,23,09,10,15.90
2009,09,23,09,11,16.00
2009,09,23,09,12,16.20
2009,09,23,09,13,16.40
2009,09,23,09,14,16.60
2009,09,23,09,15,16.70
2009,09,23,09,16,16.80
2009,09,23,09,17,16.90
2009,09,23,09,18,17.00
2009,09,23,09,19,17.10
2009,09,23,09,20,17.20
2009,09,23,09,21,17.30
2009,09,23,09,22,17.30
2009,09,23,09,23,17.30
2009,09,23,09,24,17.20
2009,09,23,09,25,17.20
2009,09,23,09,26,17.10
2009,09,23,09,27,17.00
2009,09,23,09,28,16.90
2009,09,23,09,29,16.80
2009,09,23,09,30,16.90
2009,09,23,09,31,16.90
2009,09,23,09,32,17.00
2009,09,23,09,33,17.10
2009,09,23,09,34,17.20
2009,09,23,09,35,17.30
2009,09,23,09,36,17.30
2009,09,23,09,37,17.30
2009,09,23,09,38,17.30
2009,09,23,09,39,17.40
2009,09,23,09,40,17.50
2009,09,23,09,41,17.50
2009,09,23,09,42,17.50
2009,09,23,09,43,17.40
2009,09,23,09,44,17.30
2009,09,23,09,45,17.30
2009,09,23,09,46,17.30
2009,09,23,09,47,17.20
2009,09,23,09,48,17.20
2009,09,23,09,49,17.00
2009,09,23,09,50,16.90
2009,09,23,09,51,16.80
2009,09,23,09,52,16.90
2009,09,23,09,53,16.90
2009,09,23,09,54,16.80
2009,09,23,09,55,16.80
2009,09,23,09,56,16.90
2009,09,23,09,57,17.00
2009,09,23,09,58,17.00
2009,09,23,09,59,17.00
2009,09,23,10,00,17.00
2009,09,23,10,01,17.00
2009,09,23,10,02,17.10
2009,09,23,10,03,17.20
2009,09,23,10,04,17.20
2009,09,23,10,05,17.20
2009,09,23,10,06,17.00
2009,09,23,10,07,16.80
2009,09,23,10,08,16.70
2009,09,23,10,09,16.70
2009,09,23,10,10,16.70
2009,09,23,10,11,16.70
2009,09,23,10,12,16.70
2009,09,23,10,13,16.80
2009,09,23,10,14,16.80
2009,09,23,10,15,16.80
2009,09,23,10,16,16.80
2009,09,23,10,17,16.80
2009,09,23,10,18,16.80
2009,09,23,10,19,16.90
2009,09,23,10,20,17.00
2009,09,23,10,21,17.00
2009,09,23,10,22,16.90
2009,09,23,10,23,16.70
2009,09,23,10,24,16.70
2009,09,23,10,25,16.60
2009,09,23,10,26,16.40
2009,09,23,10,27,16.30
2009,09,23,10,28,16.10
2009,09,23,10,29,16.10
2009,09,23,10,30,16.10
2009,09,23,10,31,16.10
2009,09,23,10,32,16.20
2009,09,23,10,33,16.20
2009,09,23,10,34,16.30
2009,09,23,10,35,16.40
2009,09,23,10,36,16.60
2009,09,23,10,37,16.80
2009,09,23,10,38,17.00
2009,09,23,10,39,17.20
2009,09,23,10,40,17.20
2009,09,23,10,41,17.10
2009,09,23,10,42,16.90
2009,09,23,10,43,16.80
2009,09,23,10,44,16.70
2009,09,23,10,45,16.70
2009,09,23,10,46,16.70
2009,09,23,10,47,16.70
2009,09,23,10,48,16.70
2009,09,23,10,49,16.70
2009,09,23,10,50,16.80
2009,09,23,10,51,16.80
2009,09,23,10,52,16.70
2009,09,23,10,53,16.70
2009,09,23,10,54,16.70
2009,09,23,10,55,16.90
2009,09,23,10,56,16.90
2009,09,23,10,57,16.90
2009,09,23,10,58,17.00
2009,09,23,10,59,17.00
2009,09,23,11,00,17.10
2009,09,23,11,01,17.20
2009,09,23,11,02,17.20
2009,09,23,11,03,17.20
2009,09,23,11,04,17.10
2009,09,23,11,05,17.10
2009,09,23,11,06,17.20
2009,09,23,11,07,17.30
2009,09,23,11,08,17.50
2009,09,23,11,09,17.80
2009,09,23,11,10,17.60
2009,09,23,11,11,17.30
2009,09,23,11,12,17.00
2009,09,23,11,13,16.70
2009,09,23,11,14,16.60
2009,09,23,11,15,16.40
2009,09,23,11,16,16.20
2009,09,23,11,17,16.10
2009,09,23,11,18,16.20
2009,09,23,11,19,16.20
2009,09,23,11,20,16.00
2009,09,23,11,21,15.80
2009,09,23,11,22,15.80
2009,09,23,11,23,15.80
2009,09,23,11,24,15.80
2009,09,23,11,25,15.80
2009,09,23,11,26,15.80
2009,09,23,11,27,15.90
2009,09,23,11,28,16.00
2009,09,23,11,29,16.10
2009,09,23,11,30,16.10
2009,09,23,11,31,16.20
2009,09,23,11,32,16.30
2009,09,23,11,33,16.40
2009,09,23,11,34,16.50
2009,09,23,11,35,16.70
2009,09,23,11,36,16.80
2009,09,23,11,37,16.80
2009,09,23,11,38,16.80
2009,09,23,11,39,16.90
2009,09,23,11,40,16.80
2009,09,23,11,41,16.80
2009,09,23,11,42,16.90
2009,09,23,11,43,17.10
2009,09,23,11,44,17.20
2009,09,23,11,45,17.10
2009,09,23,11,46,16.90
2009,09,23,11,47,16.80
2009,09,23,11,48,16.80
2009,09,23,11,49,16.80
2009,09,23,11,50,16.80
2009,09,23,11,51,16.80
2009,09,23,11,52,16.70
2009,09,23,11,53,16.60
2009,09,23,11,54,16.40
2009,09,23,11,55,16.20
2009,09,23,11,56,16.10
2009,09,23,11,57,16.10
2009,09,23,11,58,15.80
2009,09,23,11,59,15.80
2009,09,23,12,00,15.80
2009,09,23,12,01,15.90
2009,09,23,12,02,16.00
2009,09,23,12,03,15.90
2009,09,23,12,04,15.80
2009,09,23,12,05,15.80
2009,09,23,12,06,15.80
2009,09,23,12,07,15.80
2009,09,23,12,08,15.80
2009,09,23,12,09,15.80
2009,09,23,12,10,15.80
2009,09,23,12,11,15.80
2009,09,23,12,12,15.80
2009,09,23,12,13,15.90
2009,09,23,12,14,16.00
2009,09,23,12,15,16.00
2009,09,23,12,16,16.10
2009,09,23,12,17,16.00
2009,09,23,12,18,15.90
2009,09,23,12,19,16.10
2009,09,23,12,20,16.10
2009,09,23,12,21,16.10
2009,09,23,12,22,16.10
2009,09,23,12,23,16.10
2009,09,23,12,24,16.10
2009,09,23,12,25,16.10
2009,09,23,12,26,16.00
2009,09,23,12,27,15.80
2009,09,23,12,28,15.60
2009,09,23,12,29,15.60
2009,09,23,12,30,15.50
2009,09,23,12,31,15.50
2009,09,23,12,32,15.50
2009,09,23,12,33,15.50
2009,09,23,12,34,15.60
2009,09,23,12,35,15.50
2009,09,23,12,36,15.40
2009,09,23,12,37,15.40
2009,09,23,12,38,15.50
2009,09,23,12,39,15.50
2009,09,23,12,40,15.50
2009,09,23,12,41,15.60
2009,09,23,12,42,15.70
2009,09,23,12,43,15.80
2009,09,23,12,44,15.80
2009,09,23,12,45,15.70
2009,09,23,12,46,15.40
2009,09,23,12,47,15.20
2009,09,23,12,48,15.10
2009,09,23,12,49,15.00
2009,09,23,12,50,15.00
2009,09,23,12,51,15.00
2009,09,23,12,52,15.10
2009,09,23,12,53,15.30
2009,09,23,12,54,15.30
2009,09,23,12,55,15.30
2009,09,23,12,56,15.30
2009,09,23,12,57,15.20
2009,09,23,12,58,15.20
2009,09,23,12,59,15.30
2009,09,23,13,00,15.50
2009,09,23,13,01,15.80
2009,09,23,13,02,16.00
2009,09,23,13,03,16.30
2009,09,23,13,04,16.60
2009,09,23,13,05,16.60
2009,09,23,13,06,16.60
2009,09,23,13,07,16.50
2009,09,23,13,08,16.40
2009,09,23,13,09,16.50
2009,09,23,13,10,16.70
2009,09,23,13,11,16.80
2009,09,23,13,12,16.80
2009,09,23,13,13,17.00
2009,09,23,13,14,17.10
2009,09,23,13,15,17.30
2009,09,23,13,16,17.50
2009,09,23,13,17,17.70
2009,09,23,13,18,17.90
2009,09,23,13,19,18.20
2009,09,23,13,20,18.50
2009,09,23,13,21,18.70
2009,09,23,13,22,19.00
2009,09,23,13,23,19.20
2009,09,23,13,24,19.40
2009,09,23,13,25,19.70
2009,09,23,13,26,19.90
2009,09,23,13,27,20.10
2009,09,23,13,28,20.30
2009,09,23,13,29,20.50
2009,09,23,13,30,20.80
2009,09,23,13,31,21.00
2009,09,23,13,32,21.10
2009,09,23,13,33,21.10
2009,09,23,13,34,21.10
2009,09,23,13,35,21.00
2009,09,23,13,36,21.20
2009,09,23,13,37,21.30
2009,09,23,13,38,21.30
2009,09,23,13,39,21.30
2009,09,23,13,40,21.30
2009,09,23,13,41,21.30
2009,09,23,13,42,21.30
2009,09,23,13,43,21.20
2009,09,23,13,44,21.20
2009,09,23,13,45,21.40
2009,09,23,13,46,21.50
2009,09,23,13,47,21.60
2009,09,23,13,48,21.60
2009,09,23,13,49,21.60
2009,09,23,13,50,21.70
2009,09,23,13,51,21.90
2009,09,23,13,52,22.00
2009,09,23,13,53,22.20
2009,09,23,13,54,22.40
2009,09,23,13,55,22.60
2009,09,23,13,56,22.70
2009,09,23,13,57,22.70
2009,09,23,13,58,22.60
2009,09,23,13,59,22.60
2009,09,23,14,00,22.70
2009,09,23,14,01,22.80
2009,09,23,14,02,23.00
2009,09,23,14,03,23.50
2009,09,23,14,04,23.90
2009,09,23,14,05,24.50
2009,09,23,14,06,24.80
2009,09,23,14,07,25.20
2009,09,23,14,08,25.70
2009,09,23,14,09,26.00
2009,09,23,14,10,26.20
2009,09,23,14,11,26.40
2009,09,23,14,12,26.50
2009,09,23,14,13,26.60
2009,09,23,14,14,26.60
2009,09,23,14,15,26.70
2009,09,23,14,16,26.70
2009,09,23,14,17,26.70
2009,09,23,14,18,26.60
2009,09,23,14,19,26.60
2009,09,23,14,20,26.60
2009,09,23,14,21,26.60
2009,09,23,14,22,26.60
2009,09,23,14,23,26.60
2009,09,23,14,24,26.60
2009,09,23,14,25,26.60
2009,09,23,14,26,26.60
2009,09,23,14,27,26.60
2009,09,23,14,28,26.60
2009,09,23,14,29,26.60
2009,09,23,14,30,26.60
2009,09,23,14,31,26.60
2009,09,23,14,32,26.70
2009,09,23,14,33,26.70
2009,09,23,14,34,26.80
2009,09,23,14,35,26.90
2009,09,23,14,36,26.90
2009,09,23,14,37,26.80
2009,09,23,14,38,26.80
2009,09,23,14,39,26.80
2009,09,23,14,40,26.80
2009,09,23,14,41,26.80
2009,09,23,14,42,26.70
2009,09,23,14,43,26.80
2009,09,23,14,44,26.80
2009,09,23,14,45,26.90
2009,09,23,14,46,27.00
2009,09,23,14,47,27.10
2009,09,23,14,48,27.20
2009,09,23,14,49,27.20
2009,09,23,14,50,27.10
2009,09,23,14,51,27.20
2009,09,23,14,52,27.20
2009,09,23,14,53,27.20
2009,09,23,14,54,27.10
2009,09,23,14,55,27.00
2009,09,23,14,56,26.90
2009,09,23,14,57,26.80
2009,09,23,14,58,26.80
2009,09,23,14,59,26.80
2009,09,23,15,00,26.80
2009,09,23,15,01,26.80
2009,09,23,15,02,26.80
2009,09,23,15,03,26.70
2009,09,23,15,04,26.60
2009,09,23,15,05,26.60
2009,09,23,15,06,26.70
2009,09,23,15,07,26.80
2009,09,23,15,08,26.80
2009,09,23,15,09,26.80
2009,09,23,15,10,26.70
2009,09,23,15,11,26.70
2009,09,23,15,12,26.80
2009,09,23,15,13,26.70
2009,09,23,15,14,26.70
2009,09,23,15,15,26.70
2009,09,23,15,16,26.60
2009,09,23,15,17,26.70
2009,09,23,15,18,26.80
2009,09,23,15,19,26.80
2009,09,23,15,20,26.90
2009,09,23,15,21,26.80
2009,09,23,15,22,26.80
2009,09,23,15,23,26.80
2009,09,23,15,24,26.80
2009,09,23,15,25,26.80
2009,09,23,15,26,26.90
2009,09,23,15,27,26.90
2009,09,23,15,28,26.90
2009,09,23,15,29,26.90
2009,09,23,15,30,26.80
2009,09,23,15,31,26.80
2009,09,23,15,32,26.80
2009,09,23,15,33,26.90
2009,09,23,15,34,26.90
2009,09,23,15,35,26.90
2009,09,23,15,36,26.90
2009,09,23,15,37,26.90
2009,09,23,15,38,26.80
2009,09,23,15,39,26.80
2009,09,23,15,40,26.80
2009,09,23,15,41,26.80
2009,09,23,15,42,26.90
2009,09,23,15,43,27.00
2009,09,23,15,44,27.10
2009,09,23,15,45,27.20
2009,09,23,15,46,27.20
2009,09,23,15,47,27.10
2009,09,23,15,48,26.90
2009,09,23,15,49,26.80
2009,09,23,15,50,26.60
2009,09,23,15,51,26.60
2009,09,23,15,52,26.50
2009,09,23,15,53,26.40
2009,09,23,15,54,26.30
2009,09,23,15,55,26.30
2009,09,23,15,56,26.30
2009,09,23,15,57,26.20
2009,09,23,15,58,26.20
2009,09,23,15,59,26.20
2009,09,23,16,00,26.30
2009,09,23,16,01,26.30
2009,09,23,16,02,26.20
2009,09,23,16,03,26.20
2009,09,23,16,04,26.10
2009,09,23,16,05,26.10
2009,09,23,16,06,26.00
2009,09,23,16,07,26.00
2009,09,23,16,08,26.00
2009,09,23,16,09,26.00
2009,09,23,16,10,26.00
2009,09,23,16,11,26.00
2009,09,23,16,12,26.00
2009,09,23,16,13,26.10
2009,09,23,16,14,26.10
2009,09,23,16,15,26.10
2009,09,23,16,16,26.00
2009,09,23,16,17,26.00
2009,09,23,16,18,26.10
2009,09,23,16,19,26.10
2009,09,23,16,20,26.10
2009,09,23,16,21,26.10
2009,09,23,16,22,26.10
2009,09,23,16,23,26.20
2009,09,23,16,24,26.20
2009,09,23,16,25,26.20
2009,09,23,16,26,26.20
2009,09,23,16,27,26.10
2009,09,23,16,28,26.00
2009,09,23,16,29,26.00
2009,09,23,16,30,25.90
2009,09,23,16,31,25.90
2009,09,23,16,32,25.90
2009,09,23,16,33,25.90
2009,09,23,16,34,25.90
2009,09,23,16,35,25.80
2009,09,23,16,36,25.80
2009,09,23,16,37,25.80
2009,09,23,16,38,25.70
2009,09,23,16,39,25.70
2009,09,23,16,40,25.70
2009,09,23,16,41,25.80
2009,09,23,16,42,25.80
2009,09,23,16,43,25.80
2009,09,23,16,44,25.70
2009,09,23,16,45,25.80
2009,09,23,16,46,25.80
2009,09,23,16,47,25.80
2009,09,23,16,48,25.70
2009,09,23,16,49,25.70
2009,09,23,16,50,25.60
2009,09,23,16,51,25.60
2009,09,23,16,52,25.60
2009,09,23,16,53,25.60
2009,09,23,16,54,25.50
2009,09,23,16,55,25.50
2009,09,23,16,56,25.40
2009,09,23,16,57,25.30
2009,09,23,16,58,25.30
2009,09,23,16,59,25.20
2009,09,23,17,00,25.20
2009,09,23,17,01,25.10
2009,09,23,17,02,25.20
2009,09,23,17,03,25.20
2009,09,23,17,04,25.10
2009,09,23,17,05,25.10
2009,09,23,17,06,25.10
2009,09,23,17,07,25.00
2009,09,23,17,08,24.90
2009,09,23,17,09,24.80
2009,09,23,17,10,24.80
2009,09,23,17,11,24.70
2009,09,23,17,12,24.70
2009,09,23,17,13,24.60
2009,09,23,17,14,24.50
2009,09,23,17,15,24.50
2009,09,23,17,16,24.30
2009,09,23,17,17,24.20
2009,09,23,17,18,24.10
2009,09,23,17,19,23.90